Regional Weather Roundup
Issued by NWS Newport/Morehead, NC

Current Version | Previous Version | Text Only | Print | Product List | Glossary On
Versions: 1 2 3 4 5 6 7 8 9 10 11 12 13 14 15 16 17 18 19 20 21 22 23 24 25 26 27 28 29 30 31 32 33 34 35 36 37 38 39 40 41 42 43 44 45 46 47 48 49 50
000
ASUS42 KMHX 081412
RWRMHX
WEATHER ROUNDUP FOR EASTERN NORTH CAROLINA
NATIONAL WEATHER SERVICE NEWPORT/MOREHEAD CITY NC
900 AM EST THU DEC 08 2016

NOTE: "FAIR" INDICATES FEW OR NO CLOUDS BELOW 12,000 FEET
WITH NO SIGNIFICANT WEATHER AND/OR OBSTRUCTIONS TO VISIBILITY

NCZ015>017-031-032-045>047-102-103-081500-
NORTH COAST

CITY           SKY/WX    TMP DP  RH WIND       PRES   REMARKS
EDENTON        CLOUDY    52  47  83 CALM      30.04S
ELIZABETH CITY CLOUDY    50  45  83 SE5       30.03F
KITTY HAWK     CLOUDY    49  48  97 CALM      30.04S
MANTEO         CLOUDY    50  47  88 CALM      30.05F

$$

NCZ045>047-081-094-103-104-081500-
CENTRAL COAST

CITY           SKY/WX    TMP DP  RH WIND       PRES   REMARKS
FRISCO         NOT AVBL

$$

NCZ095-097-098-100-101-081500-
SOUTHERN COAST

CITY           SKY/WX    TMP DP  RH WIND       PRES   REMARKS
BEAUFORT       MOSUNNY   59  53  80 SW10      30.05S
CEDAR ISLAND   NOT AVBL
JACKSONVILLE   FOG       50  50 100 W7        30.06R VSB 1/4
PINEY ISLAND   CLOUDY   N/A N/A N/A CALM      30.05R
WILMINGTON     CLOUDY    50  50 100 W9        30.08R FOG


$$

NCZ011>013-027>030-043-044-078>080-089-090>093-098-081500-
COASTAL PLAIN

CITY           SKY/WX    TMP DP  RH WIND       PRES   REMARKS
AHOSKIE        CLOUDY    47  45  93 S3        30.04F
CLINTON        CLOUDY    51  51  99 W7        30.08R FOG
ELIZABETHTOWN  SUNNY     51  50  97 W5        30.08R FOG
GOLDSBORO      CLOUDY    53  53 100 SW8       30.05R
GREENVILLE     CLOUDY    50  48  93 SW6       30.06F
HAVELOCK       PTSUNNY   54  50  86 CALM      30.06R
KENANSVILLE    NOT AVBL
KINSTON        CLOUDY    54  50  87 SW7       30.07R FOG
NEW BERN       CLOUDY    53  48  83 CALM      30.07R
RICHLANDS      FOG       50  50 100 SW7       30.08R VSB 1
ROCKY MOUNT    CLOUDY    50  48  93 SW5       30.05R
WASHINGTON     CLOUDY    50  47  90 CALM      30.06R
WHITEVILLE     PTSUNNY   51  50  97 CALM      30.08R FOG

$$

AMZ130-135-150-152-154-156-158-170-250-252-270-ANZ085-086-088-633-658-670-081500-
MARINE OBSERVATIONS

STATION/POSITION TIME  TEMP    WIND        PRES    WAVE   SWELL
                       AIR SEA DIR/SP/G            HT/PER HT/PER
                 (UTC) (F)     (DEG/KT/KT) (MB)    (FT/S) (FT/S)
CHESAPEAKE LIGHT NOT AVBL
64 E VA BEACH    1350   53 58  260/  4/  8 1017.6    4/ 8   3/ 8
DUCK             1348   51 54  200/  4/  6 1016.9
2 E DUCK         NOT AVBL
OREGON INLET     1342   52 55  180/  3/  4 1017.5
13E OREGON INLT  NOT AVBL
HATTERAS CG      1348   54 60  140/  1/  2 1017.1
DIAMOND BUOY     1350   59 78  280/  4/  6 1017.4    4/ 9   3/ 9
CAPE LOOKOUT     1400   59     260/ 13/ 15 1017.2
BEAUFORT LAB     1348   58 55  210/  6/  9 1016.3
30 SE NEW RVR IN 1308   56 69  270/ 16/ 19 1017.6
30 SE NEW RVR IN NOT AVBL
27 SE WRIGHTSVLE 1308   58 67  250/ 12/ 17 1017.6
5 SE WRIGHTSVLE  1308   50 61  280/ 10/ 14 1017.9
225 S CAPE HAT   1350   72 74  250/  4/  6 1018.3    5/10   5/10
41 SE CHARLESTON 1350   66 74  270/ 12/ 16 1018.1    2/ 6   2/ 6

$$




USA.gov is the U.S. government's official web portal to all federal, state and local government web resources and services.